Weather History for Tel Aviv, Israel

Change the Weather History Date:

Saturday, June 8, 2013

  Actual Average Record
Temperature  
Mean Temperature 84 °F -  
Max Temperature 102 °F 84 °F 109 °F (2002)
Min Temperature 67 °F 68 °F 64 °F (2001)
Cooling Degree Days 20    
Growing Degree Days 34 (Base 50)    
Moisture  
Dew Point 44 °F    
Average Humidity 33    
Maximum Humidity 78    
Minimum Humidity 5    
Precipitation  
Precipitation 0.00 in - - ()
Sea Level Pressure  
Sea Level Pressure 29.81 in    
Wind  
Wind Speed 4 mph ()    
Max Wind Speed 9 mph    
Max Gust Speed -    
Visibility 6.0 miles    
Events      
Averages and records for this station are not official NWS values.
T = Trace of Precipitation, MM = Missing Value Source: Averaged Metar Reports

Daily Weather History Graph

Daily Weather History Graph

Search for Another Location

Airport:

Trip Planner

Search our weather history database for the weather conditions in past years. The results will help you decide how hot, cold, wet, or windy it might be!

Date:

Astronomy

Jun. 08, 2013 Rise Set
Actual Time 5:33 AM IDT 7:45 PM IDT
Civil Twilight 5:05 AM IDT 8:13 PM IDT
Nautical Twilight 4:31 AM IDT 8:47 PM IDT
Astronomical Twilight 3:54 AM IDT 9:24 PM IDT
Moon 5:22 AM IDT (6/8) 7:34 PM IDT (6/8)
Length of Visible Light 15h 07m
Length of Day
14h 11m
Waning Crescent, 0% of the Moon is Illuminated
Jun 8
Waning Crescent
Jun 8
New
Jun 16
First Quarter
Jun 23
Full
Jun 30
Last Quarter

Hourly Weather History & Observations

Time (IDT) Temp. Dew Point Humidity Pressure Visibility Wind Dir Wind Speed Gust Speed Precip Events Conditions
12:20 AM 71.6 °F 62.6 °F 73% 29.95 in - SSE 5.8 mph - N/A   Clear
12:50 AM 71.6 °F 62.6 °F 73% 29.95 in - Variable 3.5 mph - N/A   Clear
1:20 AM 71.6 °F 62.6 °F 73% 29.95 in - SSE 4.6 mph - N/A   Clear
1:50 AM 69.8 °F 62.6 °F 78% 29.95 in - SE 6.9 mph - N/A   Clear
2:20 AM 69.8 °F 62.6 °F 78% 29.92 in - SE 5.8 mph - N/A   Clear
2:50 AM 69.8 °F 62.6 °F 78% 29.92 in - Variable 3.5 mph - N/A   Clear
3:00 AM 70 °F 62 °F 69% 29.91 in 6 mi 3.5 mph - -  
3:20 AM 69.8 °F 62.6 °F 78% 29.89 in - SE 4.6 mph - N/A   Clear
3:50 AM 69.8 °F 60.8 °F 73% 29.89 in - Variable 2.3 mph - N/A   Clear
4:20 AM 69.8 °F 60.8 °F 73% 29.89 in - Variable 3.5 mph - N/A   Clear
4:50 AM 69.8 °F 60.8 °F 73% 29.89 in - Variable 2.3 mph - N/A   Clear
5:20 AM 68.0 °F 60.8 °F 78% 29.89 in - Variable 1.2 mph - N/A   Clear
5:50 AM 68.0 °F 59.0 °F 73% 29.89 in - Variable 2.3 mph - N/A   Clear
6:20 AM 69.8 °F 57.2 °F 64% 29.89 in - Variable 1.2 mph - N/A   Clear
6:50 AM 69.8 °F 59.0 °F 68% 29.89 in - Variable 3.5 mph - N/A   Clear
7:20 AM 71.6 °F 53.6 °F 53% 29.89 in - Variable 3.5 mph - N/A   Clear
7:50 AM 71.6 °F 55.4 °F 57% 29.89 in - ENE 5.8 mph - N/A   Clear
8:20 AM 75.2 °F 50.0 °F 41% 29.86 in - ENE 4.6 mph - N/A   Clear
8:50 AM 77.0 °F 42.8 °F 29% 29.86 in - ENE 5.8 mph - N/A   Clear
9:00 AM 79 °F 41 °F 16% 29.87 in 6 mi ENE 5.8 mph - -  
9:20 AM 80.6 °F 35.6 °F 20% 29.86 in - Variable 2.3 mph - N/A   Clear
9:50 AM 84.2 °F 30.2 °F 14% 29.86 in - Variable 2.3 mph - N/A   Clear
10:20 AM 86.0 °F 33.8 °F 15% 29.86 in - Variable 2.3 mph - N/A   Clear
10:50 AM 86.0 °F 33.8 °F 15% 29.86 in - Variable 3.5 mph - N/A   Clear
11:20 AM 89.6 °F 32.0 °F 13% 29.86 in - Variable 2.3 mph - N/A   Clear
11:50 AM 89.6 °F 33.8 °F 14% 29.83 in - Variable 1.2 mph - N/A   Clear
12:20 PM 91.4 °F 32.0 °F 12% 29.83 in - Variable 2.3 mph - N/A   Clear
12:50 PM 93.2 °F 32.0 °F 11% 29.83 in - Variable 2.3 mph - N/A   Clear
1:20 PM 95.0 °F 33.8 °F 12% 29.80 in - Variable 2.3 mph - N/A   Clear
1:50 PM 95.0 °F 33.8 °F 12% 29.80 in - NNW 4.6 mph - N/A   Clear
2:20 PM 98.6 °F 35.6 °F 11% 29.77 in - Variable 3.5 mph - N/A   Clear
2:50 PM 98.6 °F 35.6 °F 11% 29.77 in - South 5.8 mph - N/A   Clear
3:00 PM 99 °F 36 °F 5% 29.77 in 6 mi South 5.8 mph - -  
3:20 PM 98.6 °F 39.2 °F 13% 29.74 in - NW 5.8 mph - N/A   Clear
3:50 PM 100.4 °F 37.4 °F 11% 29.74 in - SW 5.8 mph - N/A   Clear
4:20 PM 100.4 °F 30.2 °F 9% 29.74 in - SW 8.1 mph - N/A   Clear
4:50 PM 102.2 °F 33.8 °F 9% 29.71 in - WSW 9.2 mph - N/A   Clear
5:20 PM 100.4 °F 30.2 °F 9% 29.71 in - SW 8.1 mph - N/A   Clear
5:50 PM 100.4 °F 33.8 °F 10% 29.71 in - SSW 8.1 mph - N/A   Clear
6:20 PM 100.4 °F 32.0 °F 9% 29.68 in - South 6.9 mph - N/A   Clear
6:50 PM 98.6 °F 33.8 °F 10% 29.68 in - SSW 4.6 mph - N/A   Clear
7:20 PM 98.6 °F 33.8 °F 10% 29.68 in - Variable 2.3 mph - N/A   Clear
7:50 PM 96.8 °F 32.0 °F 10% 29.68 in - Variable 3.5 mph - N/A   Clear
8:20 PM 93.2 °F 35.6 °F 13% 29.68 in - Variable 3.5 mph - N/A   Clear
8:50 PM 91.4 °F 39.2 °F 16% 29.68 in - Variable 3.5 mph - N/A   Clear
9:00 PM 91 °F 39 °F 8% 29.68 in 6 mi 3.5 mph - -  
9:20 PM 91.4 °F 39.2 °F 16% 29.68 in - Variable 3.5 mph - N/A   Clear
9:50 PM 91.4 °F 35.6 °F 14% 29.68 in - ESE 5.8 mph - N/A   Clear
10:20 PM 89.6 °F 37.4 °F 16% 29.68 in - SE 4.6 mph - N/A   Clear
10:50 PM 87.8 °F 41.0 °F 19% 29.68 in - SSE 3.5 mph - N/A   Clear
11:20 PM 86.0 °F 39.2 °F 19% 29.68 in - SSE 5.8 mph - N/A   Clear
11:50 PM 87.8 °F 35.6 °F 16% 29.68 in - SE 4.6 mph - N/A   Clear